Location: Newark
(50.3874°N, 10.2208°E)
Time: 23:41:30
(UTC+00:00)

Envisat - Visible Passes

Search period start: 23 October 2019 00:00
Search period end: 02 November 2019 00:00
Orbit: 764 x 766 km, 98.1° (Epoch: 23 October)

Date Brightness Start Highest point End Pass type
(mag) Time Alt. Az. Time Alt. Az. Time Alt. Az.
23 Oct 3.2 17:21:08 10° S 17:26:13 77° WSW 17:31:20 10° NNW visible
23 Oct 6.2 19:04:14 10° WSW 19:06:07 12° W 19:08:00 10° WNW visible
24 Oct 3.1 16:44:32 10° SE 16:49:29 55° ENE 16:54:28 10° N visible
24 Oct 5.3 18:24:46 10° SW 18:28:51 24° W 18:32:58 10° NW visible
25 Oct 6.3 04:50:12 10° ENE 04:52:39 13° E 04:55:05 10° ESE visible
25 Oct 4.1 17:46:54 10° S 17:51:47 47° W 17:56:43 10° NNW visible
26 Oct 3.0 17:09:51 10° SSE 17:14:56 88° ENE 17:20:04 10° NNW visible
26 Oct 6.0 18:51:51 10° WSW 18:54:41 15° W 18:57:32 10° NW visible
27 Oct 5.9 05:14:34 10° NE 05:18:30 22° E 05:22:23 10° SE visible
27 Oct 3.3 16:33:27 10° SE 16:38:16 45° ENE 16:43:07 10° N visible
27 Oct 5.0 18:13:05 10° SSW 18:17:28 29° W 18:21:54 10° NNW visible
28 Oct 6.6 04:40:07 10° ENE 04:41:12 11° E 04:42:17 10° E visible
28 Oct 3.7 17:35:29 10° S 17:40:29 58° W 17:45:31 10° NNW visible
29 Oct 2.9 16:58:38 10° SSE 17:03:41 73° ENE 17:08:46 10° N visible
29 Oct 5.7 18:39:47 10° SW 18:43:16 18° W 18:46:45 10° NW visible
30 Oct 6.0 05:03:39 10° NE 05:07:06 18° E 05:10:31 10° SE visible
30 Oct 4.6 18:01:29 10° SSW 18:06:07 36° W 18:10:48 10° NNW visible
31 Oct 3.3 17:24:07 10° S 17:29:11 71° WSW 17:34:18 10° NNW visible
31 Oct 6.2 19:07:52 10° W 19:09:09 11° W 19:10:26 10° WNW visible
01 Nov 5.4 05:28:28 10° NNE 05:32:53 29° E 05:37:15 10° SSE visible
01 Nov 3.0 16:47:27 10° SSE 16:52:26 59° ENE 16:57:27 10° N visible
01 Nov 5.4 18:27:56 10° SW 18:31:51 22° W 18:35:49 10° NW visible
